owner,sensor,date,latitude,longitude,air_temperature,qcFlag 
DISL,ioos:station:DISL:MHPA:1,2019-05-01T05:02:00Z,30.6671,-87.9365,21.43,11111222 
DISL,ioos:station:DISL:MHPA:1,2019-05-01T06:32:00Z,30.6671,-87.9365,21.2,11111222 
DISL,ioos:station:DISL:MHPA:1,2019-05-01T07:02:00Z,30.6671,-87.9365,21.2,11111222 
DISL,ioos:station:DISL:MHPA:1,2019-05-01T08:02:00Z,30.6671,-87.9365,20.86,11111222 
DISL,ioos:station:DISL:MHPA:1,2019-05-01T09:02:00Z,30.6671,-87.9365,20.06,11111222 
DISL,ioos:station:DISL:MHPA:1,2019-05-01T10:02:00Z,30.6671,-87.9365,19.66,11111222 
DISL,ioos:station:DISL:MHPA:1,2019-05-01T11:02:00Z,30.6671,-87.9365,19.73,11111222 
DISL,ioos:station:DISL:MHPA:1,2019-05-01T12:02:00Z,30.6671,-87.9365,20.3,11111222 
DISL,ioos:station:DISL:MHPA:1,2019-05-01T13:02:00Z,30.6671,-87.9365,21.84,11111222 
DISL,ioos:station:DISL:MHPA:1,2019-05-01T14:02:00Z,30.6671,-87.9365,24.45,11111222 
DISL,ioos:station:DISL:MHPA:1,2019-05-01T15:02:00Z,30.6671,-87.9365,25.52,11111222 
DISL,ioos:station:DISL:MHPA:1,2019-05-01T16:02:00Z,30.6671,-87.9365,24.29,11111222 
DISL,ioos:station:DISL:MHPA:1,2019-05-01T17:02:00Z,30.6671,-87.9365,24.29,11111222 
DISL,ioos:station:DISL:MHPA:1,2019-05-01T18:02:00Z,30.6671,-87.9365,23.82,11111222 
DISL,ioos:station:DISL:MHPA:1,2019-05-01T19:02:00Z,30.6671,-87.9365,23.84,11111222 
DISL,ioos:station:DISL:MHPA:1,2019-05-01T20:02:00Z,30.6671,-87.9365,23.96,11111222 
DISL,ioos:station:DISL:MHPA:1,2019-05-01T21:02:00Z,30.6671,-87.9365,24.4,11111222 
DISL,ioos:station:DISL:MHPA:1,2019-05-01T22:02:00Z,30.6671,-87.9365,24.23,11111222 
DISL,ioos:station:DISL:MHPA:1,2019-05-01T23:02:00Z,30.6671,-87.9365,23.91,11111222 
DISL,ioos:station:DISL:MHPA:1,2019-05-02T00:02:00Z,30.6671,-87.9365,23.74,11111222 
DISL,ioos:station:DISL:MHPA:1,2019-05-02T01:02:00Z,30.6671,-87.9365,24.04,11111222 
DISL,ioos:station:DISL:MHPA:1,2019-05-02T02:02:00Z,30.6671,-87.9365,23.1,11111222 
DISL,ioos:station:DISL:MHPA:1,2019-05-02T03:02:00Z,30.6671,-87.9365,22.37,11111222 
DISL,ioos:station:DISL:MHPA:1,2019-05-02T04:02:00Z,30.6671,-87.9365,21.9,11111222 
DISL,ioos:station:DISL:MHPA:1,2019-05-02T05:02:00Z,30.6671,-87.9365,21.57,11111222 
DISL,ioos:station:DISL:MHPA:1,2019-05-02T06:02:00Z,30.6671,-87.9365,21.2,11111222 
DISL,ioos:station:DISL:MHPA:1,2019-05-02T07:02:00Z,30.6671,-87.9365,20.86,11111222 
DISL,ioos:station:DISL:MHPA:1,2019-05-02T08:02:00Z,30.6671,-87.9365,20.33,11111222 
DISL,ioos:station:DISL:MHPA:1,2019-05-02T09:02:00Z,30.6671,-87.9365,19.8,11111222 
DISL,ioos:station:DISL:MHPA:1,2019-05-02T10:02:00Z,30.6671,-87.9365,19.53,11111222 
DISL,ioos:station:DISL:MHPA:1,2019-05-02T11:02:00Z,30.6671,-87.9365,18.92,11111222 
DISL,ioos:station:DISL:MHPA:1,2019-05-02T12:02:00Z,30.6671,-87.9365,19.9,11111222 
DISL,ioos:station:DISL:MHPA:1,2019-05-02T13:02:00Z,30.6671,-87.9365,21.67,11111222 
DISL,ioos:station:DISL:MHPA:1,2019-05-03T09:02:00Z,30.6671,-87.9365,21.16,11111222 
DISL,ioos:station:DISL:MHPA:1,2019-05-03T10:02:00Z,30.6671,-87.9365,21.03,11111222 
DISL,ioos:station:DISL:MHPA:1,2019-05-03T11:02:00Z,30.6671,-87.9365,20.93,11111222 
DISL,ioos:station:DISL:MHPA:1,2019-05-03T12:02:00Z,30.6671,-87.9365,20.52,11111222 
DISL,ioos:station:DISL:MHPA:1,2019-05-03T13:02:00Z,30.6671,-87.9365,21.36,11111222 
DISL,ioos:station:DISL:MHPA:1,2019-05-03T14:02:00Z,30.6671,-87.9365,21.41,11111222 
DISL,ioos:station:DISL:MHPA:1,2019-05-03T15:02:00Z,30.6671,-87.9365,23.35,11111222 
DISL,ioos:station:DISL:MHPA:1,2019-05-03T16:02:00Z,30.6671,-87.9365,24.06,11111222 
DISL,ioos:station:DISL:MHPA:1,2019-05-03T17:02:00Z,30.6671,-87.9365,24.7,11111222 
DISL,ioos:station:DISL:MHPA:1,2019-05-03T18:02:00Z,30.6671,-87.9365,25.27,11111222 
DISL,ioos:station:DISL:MHPA:1,2019-05-03T19:02:00Z,30.6671,-87.9365,24.9,11111222 
DISL,ioos:station:DISL:MHPA:1,2019-05-03T20:02:00Z,30.6671,-87.9365,24.53,11111222 
DISL,ioos:station:DISL:MHPA:1,2019-05-03T21:02:00Z,30.6671,-87.9365,24.36,11111222 
DISL,ioos:station:DISL:MHPA:1,2019-05-03T22:02:00Z,30.6671,-87.9365,24.4,11111222 
DISL,ioos:station:DISL:MHPA:1,2019-05-03T23:02:00Z,30.6671,-87.9365,24.53,11111222 
DISL,ioos:station:DISL:MHPA:1,2019-05-04T00:02:00Z,30.6671,-87.9365,24.15,11111222 
DISL,ioos:station:DISL:MHPA:1,2019-05-04T01:02:00Z,30.6671,-87.9365,24.04,11111222 
DISL,ioos:station:DISL:MHPA:1,2019-05-04T02:02:00Z,30.6671,-87.9365,23.94,11111222 
DISL,ioos:station:DISL:MHPA:1,2019-05-04T03:02:00Z,30.6671,-87.9365,23.84,11111222 
DISL,ioos:station:DISL:MHPA:1,2019-05-04T04:02:00Z,30.6671,-87.9365,22.53,11111222 
DISL,ioos:station:DISL:MHPA:1,2019-05-04T05:02:00Z,30.6671,-87.9365,22.07,11111222 
DISL,ioos:station:DISL:MHPA:1,2019-05-04T06:02:00Z,30.6671,-87.9365,22.21,11111222 
DISL,ioos:station:DISL:MHPA:1,2019-05-04T07:02:00Z,30.6671,-87.9365,22.38,11111222 
DISL,ioos:station:DISL:MHPA:1,2019-05-04T08:02:00Z,30.6671,-87.9365,22.82,11111222 
DISL,ioos:station:DISL:MHPA:1,2019-05-04T09:02:00Z,30.6671,-87.9365,23.51,11111222 
DISL,ioos:station:DISL:MHPA:1,2019-05-04T10:02:00Z,30.6671,-87.9365,23.4,11111222 
DISL,ioos:station:DISL:MHPA:1,2019-05-04T11:02:00Z,30.6671,-87.9365,23.44,11111222 
DISL,ioos:station:DISL:MHPA:1,2019-05-04T12:02:00Z,30.6671,-87.9365,23.47,11111222 
DISL,ioos:station:DISL:MHPA:1,2019-05-04T13:02:00Z,30.6671,-87.9365,23.77,11111222 
DISL,ioos:station:DISL:MHPA:1,2019-05-04T14:02:00Z,30.6671,-87.9365,24.01,11111222 
DISL,ioos:station:DISL:MHPA:1,2019-05-04T15:02:00Z,30.6671,-87.9365,24.25,11111222 
DISL,ioos:station:DISL:MHPA:1,2019-05-04T16:02:00Z,30.6671,-87.9365,24.48,11111222 
DISL,ioos:station:DISL:MHPA:1,2019-05-04T17:02:00Z,30.6671,-87.9365,25.07,11111222 
DISL,ioos:station:DISL:MHPA:1,2019-05-04T18:02:00Z,30.6671,-87.9365,25.34,11111222 
DISL,ioos:station:DISL:MHPA:1,2019-05-04T19:02:00Z,30.6671,-87.9365,25.22,11111222 
DISL,ioos:station:DISL:MHPA:1,2019-05-04T20:02:00Z,30.6671,-87.9365,20.84,11111222 
DISL,ioos:station:DISL:MHPA:1,2019-05-04T21:02:00Z,30.6671,-87.9365,21.8,11111222 
DISL,ioos:station:DISL:MHPA:1,2019-05-04T22:02:00Z,30.6671,-87.9365,22.66,11111222 
DISL,ioos:station:DISL:MHPA:1,2019-05-04T23:02:00Z,30.6671,-87.9365,23.24,11111222 
DISL,ioos:station:DISL:MHPA:1,2019-05-05T00:03:00Z,30.6671,-87.9365,23.24,11111222 
DISL,ioos:station:DISL:MHPA:1,2019-05-05T01:02:00Z,30.6671,-87.9365,22.86,11111222 
DISL,ioos:station:DISL:MHPA:1,2019-05-05T02:02:00Z,30.6671,-87.9365,22.73,11111222 
DISL,ioos:station:DISL:MHPA:1,2019-05-05T03:02:00Z,30.6671,-87.9365,22.61,11111222 
DISL,ioos:station:DISL:MHPA:1,2019-05-05T04:02:00Z,30.6671,-87.9365,22.75,11111222 
DISL,ioos:station:DISL:MHPA:1,2019-05-05T05:03:00Z,30.6671,-87.9365,22.65,11111222 
DISL,ioos:station:DISL:MHPA:1,2019-05-05T06:03:00Z,30.6671,-87.9365,22.55,11111222 
DISL,ioos:station:DISL:MHPA:1,2019-05-05T07:02:00Z,30.6671,-87.9365,21.36,11111222 
DISL,ioos:station:DISL:MHPA:1,2019-05-05T08:02:00Z,30.6671,-87.9365,20.45,11111222 
DISL,ioos:station:DISL:MHPA:1,2019-05-05T09:02:00Z,30.6671,-87.9365,20.12,11111222 
DISL,ioos:station:DISL:MHPA:1,2019-05-05T10:02:00Z,30.6671,-87.9365,19.69,11111222 
DISL,ioos:station:DISL:MHPA:1,2019-05-05T11:02:00Z,30.6671,-87.9365,19.32,11111222 
DISL,ioos:station:DISL:MHPA:1,2019-05-05T12:03:00Z,30.6671,-87.9365,19.59,11111222 
DISL,ioos:station:DISL:MHPA:1,2019-05-05T13:03:00Z,30.6671,-87.9365,20.18,11111222 
DISL,ioos:station:DISL:MHPA:1,2019-05-05T14:03:00Z,30.6671,-87.9365,20.98,11111222 
DISL,ioos:station:DISL:MHPA:1,2019-05-05T15:03:00Z,30.6671,-87.9365,21.25,11111222 
DISL,ioos:station:DISL:MHPA:1,2019-05-05T16:02:00Z,30.6671,-87.9365,21.99,11111222 
DISL,ioos:station:DISL:MHPA:1,2019-05-05T17:02:00Z,30.6671,-87.9365,22.76,11111222 
DISL,ioos:station:DISL:MHPA:1,2019-05-05T18:03:00Z,30.6671,-87.9365,23.1,11111222 
DISL,ioos:station:DISL:MHPA:1,2019-05-05T19:02:00Z,30.6671,-87.9365,24.1,11111222 
DISL,ioos:station:DISL:MHPA:1,2019-05-05T20:03:00Z,30.6671,-87.9365,24.53,11111222 
DISL,ioos:station:DISL:MHPA:1,2019-05-05T21:03:00Z,30.6671,-87.9365,24.97,11111222 
DISL,ioos:station:DISL:MHPA:1,2019-05-05T22:03:00Z,30.6671,-87.9365,24.77,11111222 
DISL,ioos:station:DISL:MHPA:1,2019-05-05T23:03:00Z,30.6671,-87.9365,25.0,11111222 
DISL,ioos:station:DISL:MHPA:1,2019-05-06T00:03:00Z,30.6671,-87.9365,24.08,11111222 
DISL,ioos:station:DISL:MHPA:1,2019-05-06T01:03:00Z,30.6671,-87.9365,22.36,11111222 
DISL,ioos:station:DISL:MHPA:1,2019-05-06T02:02:00Z,30.6671,-87.9365,21.5,11111222 
DISL,ioos:station:DISL:MHPA:1,2019-05-06T03:03:00Z,30.6671,-87.9365,20.69,11111222 
DISL,ioos:station:DISL:MHPA:1,2019-05-06T04:03:00Z,30.6671,-87.9365,20.09,11111222 
DISL,ioos:station:DISL:MHPA:1,2019-05-06T05:03:00Z,30.6671,-87.9365,20.0,11111222 
DISL,ioos:station:DISL:MHPA:1,2019-05-06T06:03:00Z,30.6671,-87.9365,19.63,11111222 
DISL,ioos:station:DISL:MHPA:1,2019-05-06T07:03:00Z,30.6671,-87.9365,18.51,11111222 
DISL,ioos:station:DISL:MHPA:1,2019-05-06T08:03:00Z,30.6671,-87.9365,17.84,11111222 
DISL,ioos:station:DISL:MHPA:1,2019-05-06T09:03:00Z,30.6671,-87.9365,17.26,11111222 
DISL,ioos:station:DISL:MHPA:1,2019-05-06T10:03:00Z,30.6671,-87.9365,16.73,11111222 
DISL,ioos:station:DISL:MHPA:1,2019-05-06T11:03:00Z,30.6671,-87.9365,16.87,11111222 
DISL,ioos:station:DISL:MHPA:1,2019-05-06T12:03:00Z,30.6671,-87.9365,17.07,11111222 
DISL,ioos:station:DISL:MHPA:1,2019-05-06T13:03:00Z,30.6671,-87.9365,19.19,11111222 
DISL,ioos:station:DISL:MHPA:1,2019-05-06T14:03:00Z,30.6671,-87.9365,20.72,11111222 
DISL,ioos:station:DISL:MHPA:1,2019-05-06T15:03:00Z,30.6671,-87.9365,21.38,11111222 
DISL,ioos:station:DISL:MHPA:1,2019-05-06T16:03:00Z,30.6671,-87.9365,22.63,11111222 
DISL,ioos:station:DISL:MHPA:1,2019-05-06T17:03:00Z,30.6671,-87.9365,23.81,11111222 
DISL,ioos:station:DISL:MHPA:1,2019-05-06T18:03:00Z,30.6671,-87.9365,24.08,11111222 
DISL,ioos:station:DISL:MHPA:1,2019-05-06T19:03:00Z,30.6671,-87.9365,25.16,11111222 
DISL,ioos:station:DISL:MHPA:1,2019-05-06T20:03:00Z,30.6671,-87.9365,25.58,11111222 
DISL,ioos:station:DISL:MHPA:1,2019-05-06T21:03:00Z,30.6671,-87.9365,26.59,11111222 
DISL,ioos:station:DISL:MHPA:1,2019-05-06T22:03:00Z,30.6671,-87.9365,27.03,11111222 
DISL,ioos:station:DISL:MHPA:1,2019-05-06T23:03:00Z,30.6671,-87.9365,25.64,11111222 
DISL,ioos:station:DISL:MHPA:1,2019-05-07T00:03:00Z,30.6671,-87.9365,24.74,11111222 
DISL,ioos:station:DISL:MHPA:1,2019-05-07T01:03:00Z,30.6671,-87.9365,24.31,11111222 
DISL,ioos:station:DISL:MHPA:1,2019-05-07T02:03:00Z,30.6671,-87.9365,23.84,11111222 
DISL,ioos:station:DISL:MHPA:1,2019-05-07T03:03:00Z,30.6671,-87.9365,23.4,11111222 
DISL,ioos:station:DISL:MHPA:1,2019-05-07T04:03:00Z,30.6671,-87.9365,23.19,11111222 
DISL,ioos:station:DISL:MHPA:1,2019-05-07T05:03:00Z,30.6671,-87.9365,22.92,11111222 
DISL,ioos:station:DISL:MHPA:1,2019-05-07T06:03:00Z,30.6671,-87.9365,20.63,11111222 
DISL,ioos:station:DISL:MHPA:1,2019-05-07T07:03:00Z,30.6671,-87.9365,20.06,11111222 
DISL,ioos:station:DISL:MHPA:1,2019-05-07T08:03:00Z,30.6671,-87.9365,19.12,11111222 
DISL,ioos:station:DISL:MHPA:1,2019-05-07T09:03:00Z,30.6671,-87.9365,18.58,11111222 
DISL,ioos:station:DISL:MHPA:1,2019-05-07T10:03:00Z,30.6671,-87.9365,18.72,11111222 
DISL,ioos:station:DISL:MHPA:1,2019-05-07T11:03:00Z,30.6671,-87.9365,18.55,11111222 
DISL,ioos:station:DISL:MHPA:1,2019-05-07T12:03:00Z,30.6671,-87.9365,19.56,11111222 
DISL,ioos:station:DISL:MHPA:1,2019-05-07T13:03:00Z,30.6671,-87.9365,20.72,11111222 
DISL,ioos:station:DISL:MHPA:1,2019-05-07T14:03:00Z,30.6671,-87.9365,23.23,11111222 
DISL,ioos:station:DISL:MHPA:1,2019-05-07T15:03:00Z,30.6671,-87.9365,22.98,11111222 
DISL,ioos:station:DISL:MHPA:1,2019-05-07T16:03:00Z,30.6671,-87.9365,24.13,11111222 
DISL,ioos:station:DISL:MHPA:1,2019-05-07T17:03:00Z,30.6671,-87.9365,25.68,11111222 
DISL,ioos:station:DISL:MHPA:1,2019-05-07T18:03:00Z,30.6671,-87.9365,25.85,11111222 
DISL,ioos:station:DISL:MHPA:1,2019-05-07T19:03:00Z,30.6671,-87.9365,26.05,11111222 
DISL,ioos:station:DISL:MHPA:1,2019-05-07T20:03:00Z,30.6671,-87.9365,26.01,11111222 
DISL,ioos:station:DISL:MHPA:1,2019-05-07T21:03:00Z,30.6671,-87.9365,26.08,11111222 
DISL,ioos:station:DISL:MHPA:1,2019-05-07T22:03:00Z,30.6671,-87.9365,26.15,11111222 
DISL,ioos:station:DISL:MHPA:1,2019-05-07T23:03:00Z,30.6671,-87.9365,25.95,11111222 
DISL,ioos:station:DISL:MHPA:1,2019-05-08T00:03:00Z,30.6671,-87.9365,25.71,11111222 
DISL,ioos:station:DISL:MHPA:1,2019-05-08T01:03:00Z,30.6671,-87.9365,25.29,11111222 
DISL,ioos:station:DISL:MHPA:1,2019-05-08T02:03:00Z,30.6671,-87.9365,24.62,11111222 
DISL,ioos:station:DISL:MHPA:1,2019-05-08T03:03:00Z,30.6671,-87.9365,24.01,11111222 
DISL,ioos:station:DISL:MHPA:1,2019-05-08T04:03:00Z,30.6671,-87.9365,23.37,11111222 
DISL,ioos:station:DISL:MHPA:1,2019-05-08T05:02:00Z,30.6671,-87.9365,22.97,11111222 
DISL,ioos:station:DISL:MHPA:1,2019-05-08T06:02:00Z,30.6671,-87.9365,22.34,11111222 
DISL,ioos:station:DISL:MHPA:1,2019-05-08T07:02:00Z,30.6671,-87.9365,21.7,11111222 
DISL,ioos:station:DISL:MHPA:1,2019-05-08T08:02:00Z,30.6671,-87.9365,21.5,11111222 
DISL,ioos:station:DISL:MHPA:1,2019-05-08T09:02:00Z,30.6671,-87.9365,21.36,11111222 
DISL,ioos:station:DISL:MHPA:1,2019-05-08T10:02:00Z,30.6671,-87.9365,20.93,11111222 
DISL,ioos:station:DISL:MHPA:1,2019-05-08T11:02:00Z,30.6671,-87.9365,20.8,11111222 
DISL,ioos:station:DISL:MHPA:1,2019-05-08T12:02:00Z,30.6671,-87.9365,20.89,11111222 
DISL,ioos:station:DISL:MHPA:1,2019-05-08T13:02:00Z,30.6671,-87.9365,22.07,11111222 
DISL,ioos:station:DISL:MHPA:1,2019-05-08T14:02:00Z,30.6671,-87.9365,23.13,11111222 
DISL,ioos:station:DISL:MHPA:1,2019-05-08T15:02:00Z,30.6671,-87.9365,25.39,11111222 
DISL,ioos:station:DISL:MHPA:1,2019-05-08T16:02:00Z,30.6671,-87.9365,26.66,11111222 
DISL,ioos:station:DISL:MHPA:1,2019-05-08T17:02:00Z,30.6671,-87.9365,27.06,11111222 
DISL,ioos:station:DISL:MHPA:1,2019-05-08T18:02:00Z,30.6671,-87.9365,25.31,11111222 
DISL,ioos:station:DISL:MHPA:1,2019-05-08T19:02:00Z,30.6671,-87.9365,25.41,11111222 
DISL,ioos:station:DISL:MHPA:1,2019-05-08T20:02:00Z,30.6671,-87.9365,26.93,11111222 
DISL,ioos:station:DISL:MHPA:1,2019-05-08T21:02:00Z,30.6671,-87.9365,25.47,11111222 
DISL,ioos:station:DISL:MHPA:1,2019-05-08T22:02:00Z,30.6671,-87.9365,25.81,11111222 
DISL,ioos:station:DISL:MHPA:1,2019-05-08T23:02:00Z,30.6671,-87.9365,26.42,11111222 
DISL,ioos:station:DISL:MHPA:1,2019-05-09T00:02:00Z,30.6671,-87.9365,25.14,11111222 
DISL,ioos:station:DISL:MHPA:1,2019-05-09T01:02:00Z,30.6671,-87.9365,24.82,11111222 
DISL,ioos:station:DISL:MHPA:1,2019-05-09T02:02:00Z,30.6671,-87.9365,24.01,11111222 
DISL,ioos:station:DISL:MHPA:1,2019-05-09T03:02:00Z,30.6671,-87.9365,23.61,11111222 
DISL,ioos:station:DISL:MHPA:1,2019-05-09T04:02:00Z,30.6671,-87.9365,23.17,11111222 
DISL,ioos:station:DISL:MHPA:1,2019-05-09T05:02:00Z,30.6671,-87.9365,22.63,11111222 
DISL,ioos:station:DISL:MHPA:1,2019-05-09T06:02:00Z,30.6671,-87.9365,22.41,11111222 
DISL,ioos:station:DISL:MHPA:1,2019-05-09T07:02:00Z,30.6671,-87.9365,22.24,11111222 
DISL,ioos:station:DISL:MHPA:1,2019-05-09T08:02:00Z,30.6671,-87.9365,22.45,11111222 
DISL,ioos:station:DISL:MHPA:1,2019-05-09T09:02:00Z,30.6671,-87.9365,22.01,11111222 
DISL,ioos:station:DISL:MHPA:1,2019-05-09T10:02:00Z,30.6671,-87.9365,22.11,11111222 
DISL,ioos:station:DISL:MHPA:1,2019-05-09T11:02:00Z,30.6671,-87.9365,22.31,11111222 
DISL,ioos:station:DISL:MHPA:1,2019-05-09T12:02:00Z,30.6671,-87.9365,22.48,11111222 
DISL,ioos:station:DISL:MHPA:1,2019-05-09T13:02:00Z,30.6671,-87.9365,23.61,11111222 
DISL,ioos:station:DISL:MHPA:1,2019-05-09T14:02:00Z,30.6671,-87.9365,25.06,11111222 
DISL,ioos:station:DISL:MHPA:1,2019-05-09T15:02:00Z,30.6671,-87.9365,25.51,11111222 
DISL,ioos:station:DISL:MHPA:1,2019-05-09T16:02:00Z,30.6671,-87.9365,25.85,11111222 
DISL,ioos:station:DISL:MHPA:1,2019-05-09T17:02:00Z,30.6671,-87.9365,26.45,11111222 
DISL,ioos:station:DISL:MHPA:1,2019-05-09T18:02:00Z,30.6671,-87.9365,26.42,11111222 
DISL,ioos:station:DISL:MHPA:1,2019-05-09T19:02:00Z,30.6671,-87.9365,26.66,11111222 
DISL,ioos:station:DISL:MHPA:1,2019-05-09T20:02:00Z,30.6671,-87.9365,26.82,11111222 
DISL,ioos:station:DISL:MHPA:1,2019-05-09T21:02:00Z,30.6671,-87.9365,26.35,11111222 
DISL,ioos:station:DISL:MHPA:1,2019-05-09T22:02:00Z,30.6671,-87.9365,25.66,11111222 
DISL,ioos:station:DISL:MHPA:1,2019-05-09T23:02:00Z,30.6671,-87.9365,19.64,11111222 
DISL,ioos:station:DISL:MHPA:1,2019-05-10T00:02:00Z,30.6671,-87.9365,19.85,11111222 
DISL,ioos:station:DISL:MHPA:1,2019-05-10T01:02:00Z,30.6671,-87.9365,20.16,11111222 
DISL,ioos:station:DISL:MHPA:1,2019-05-10T02:02:00Z,30.6671,-87.9365,19.79,11111222 
DISL,ioos:station:DISL:MHPA:1,2019-05-10T03:02:00Z,30.6671,-87.9365,19.96,11111222 
DISL,ioos:station:DISL:MHPA:1,2019-05-10T04:02:00Z,30.6671,-87.9365,19.89,11111222 
DISL,ioos:station:DISL:MHPA:1,2019-05-10T05:02:00Z,30.6671,-87.9365,20.16,11111222 
DISL,ioos:station:DISL:MHPA:1,2019-05-10T06:32:00Z,30.6671,-87.9365,20.5,11111222 
DISL,ioos:station:DISL:MHPA:1,2019-05-10T07:02:00Z,30.6671,-87.9365,19.89,11111222 
DISL,ioos:station:DISL:MHPA:1,2019-05-10T08:02:00Z,30.6671,-87.9365,19.76,11111222 
DISL,ioos:station:DISL:MHPA:1,2019-05-10T09:02:00Z,30.6671,-87.9365,18.99,11111222 
DISL,ioos:station:DISL:MHPA:1,2019-05-10T10:02:00Z,30.6671,-87.9365,18.58,11111222 
DISL,ioos:station:DISL:MHPA:1,2019-05-10T11:02:00Z,30.6671,-87.9365,18.41,11111222 
DISL,ioos:station:DISL:MHPA:1,2019-05-10T12:02:00Z,30.6671,-87.9365,18.61,11111222 
DISL,ioos:station:DISL:MHPA:1,2019-05-10T13:02:00Z,30.6671,-87.9365,19.59,11111222 
DISL,ioos:station:DISL:MHPA:1,2019-05-10T14:02:00Z,30.6671,-87.9365,21.5,11111222 
DISL,ioos:station:DISL:MHPA:1,2019-05-10T15:02:00Z,30.6671,-87.9365,22.9,11111222 
DISL,ioos:station:DISL:MHPA:1,2019-05-10T16:02:00Z,30.6671,-87.9365,23.71,11111222 
DISL,ioos:station:DISL:MHPA:1,2019-05-10T17:02:00Z,30.6671,-87.9365,24.46,11111222 
DISL,ioos:station:DISL:MHPA:1,2019-05-10T18:02:00Z,30.6671,-87.9365,24.93,11111222 
DISL,ioos:station:DISL:MHPA:1,2019-05-10T19:02:00Z,30.6671,-87.9365,25.71,11111222 
DISL,ioos:station:DISL:MHPA:1,2019-05-10T20:02:00Z,30.6671,-87.9365,26.49,11111222 
DISL,ioos:station:DISL:MHPA:1,2019-05-10T21:02:00Z,30.6671,-87.9365,26.52,11111222 
DISL,ioos:station:DISL:MHPA:1,2019-05-10T22:02:00Z,30.6671,-87.9365,26.62,11111222 
DISL,ioos:station:DISL:MHPA:1,2019-05-10T23:02:00Z,30.6671,-87.9365,25.37,11111222 
DISL,ioos:station:DISL:MHPA:1,2019-05-11T00:02:00Z,30.6671,-87.9365,25.36,11111222 
DISL,ioos:station:DISL:MHPA:1,2019-05-11T01:02:00Z,30.6671,-87.9365,25.39,11111222 
DISL,ioos:station:DISL:MHPA:1,2019-05-11T02:02:00Z,30.6671,-87.9365,24.72,11111222 
DISL,ioos:station:DISL:MHPA:1,2019-05-11T03:02:00Z,30.6671,-87.9365,24.25,11111222 
DISL,ioos:station:DISL:MHPA:1,2019-05-11T04:02:00Z,30.6671,-87.9365,24.05,11111222 
DISL,ioos:station:DISL:MHPA:1,2019-05-11T05:02:00Z,30.6671,-87.9365,23.57,11111222 
DISL,ioos:station:DISL:MHPA:1,2019-05-11T06:02:00Z,30.6671,-87.9365,23.34,11111222 
DISL,ioos:station:DISL:MHPA:1,2019-05-11T07:02:00Z,30.6671,-87.9365,23.13,11111222 
DISL,ioos:station:DISL:MHPA:1,2019-05-11T08:02:00Z,30.6671,-87.9365,23.57,11111222 
DISL,ioos:station:DISL:MHPA:1,2019-05-11T09:02:00Z,30.6671,-87.9365,23.37,11111222 
DISL,ioos:station:DISL:MHPA:1,2019-05-11T10:02:00Z,30.6671,-87.9365,23.2,11111222 
DISL,ioos:station:DISL:MHPA:1,2019-05-11T11:02:00Z,30.6671,-87.9365,23.64,11111222 
DISL,ioos:station:DISL:MHPA:1,2019-05-11T12:02:00Z,30.6671,-87.9365,24.15,11111222 
DISL,ioos:station:DISL:MHPA:1,2019-05-11T13:02:00Z,30.6671,-87.9365,20.69,11111222 
DISL,ioos:station:DISL:MHPA:1,2019-05-13T14:02:00Z,30.6671,-87.9365,21.62,11111222 
DISL,ioos:station:DISL:MHPA:1,2019-05-13T15:02:00Z,30.6671,-87.9365,22.59,11111222 
DISL,ioos:station:DISL:MHPA:1,2019-05-13T16:02:00Z,30.6671,-87.9365,23.17,11111222 
DISL,ioos:station:DISL:MHPA:1,2019-05-13T17:02:00Z,30.6671,-87.9365,23.54,11111222 
DISL,ioos:station:DISL:MHPA:1,2019-05-13T18:02:00Z,30.6671,-87.9365,24.38,11111222 
DISL,ioos:station:DISL:MHPA:1,2019-05-13T19:02:00Z,30.6671,-87.9365,25.36,11111222 
DISL,ioos:station:DISL:MHPA:1,2019-05-13T20:02:00Z,30.6671,-87.9365,25.95,11111222 
DISL,ioos:station:DISL:MHPA:1,2019-05-13T21:02:00Z,30.6671,-87.9365,26.18,11111222 
DISL,ioos:station:DISL:MHPA:1,2019-05-13T22:02:00Z,30.6671,-87.9365,25.71,11111222 
DISL,ioos:station:DISL:MHPA:1,2019-05-13T23:02:00Z,30.6671,-87.9365,25.78,11111222 
DISL,ioos:station:DISL:MHPA:1,2019-05-14T00:02:00Z,30.6671,-87.9365,25.25,11111222 
DISL,ioos:station:DISL:MHPA:1,2019-05-14T01:02:00Z,30.6671,-87.9365,23.23,11111222 
DISL,ioos:station:DISL:MHPA:1,2019-05-14T02:02:00Z,30.6671,-87.9365,22.11,11111222 
DISL,ioos:station:DISL:MHPA:1,2019-05-14T03:02:00Z,30.6671,-87.9365,21.26,11111222 
DISL,ioos:station:DISL:MHPA:1,2019-05-14T04:02:00Z,30.6671,-87.9365,20.63,11111222 
DISL,ioos:station:DISL:MHPA:1,2019-05-14T05:02:00Z,30.6671,-87.9365,19.49,11111222 
DISL,ioos:station:DISL:MHPA:1,2019-05-14T05:32:00Z,30.6671,-87.9365,19.32,11111222 
DISL,ioos:station:DISL:MHPA:1,2019-05-17T04:24:00Z,30.6671,-87.9365,24.75,11111222 
DISL,ioos:station:DISL:MHPA:1,2019-05-18T04:02:00Z,30.6671,-87.9365,23.2,11111222 
DISL,ioos:station:DISL:MHPA:1,2019-05-18T05:02:00Z,30.6671,-87.9365,22.55,11111222 
DISL,ioos:station:DISL:MHPA:1,2019-05-18T06:02:00Z,30.6671,-87.9365,22.41,11111222 
DISL,ioos:station:DISL:MHPA:1,2019-05-18T07:02:00Z,30.6671,-87.9365,22.21,11111222 
DISL,ioos:station:DISL:MHPA:1,2019-05-18T08:02:00Z,30.6671,-87.9365,22.11,11111222 
DISL,ioos:station:DISL:MHPA:1,2019-05-18T09:02:00Z,30.6671,-87.9365,22.17,11111222 
DISL,ioos:station:DISL:MHPA:1,2019-05-18T10:02:00Z,30.6671,-87.9365,22.14,11111222 
DISL,ioos:station:DISL:MHPA:1,2019-05-18T11:02:00Z,30.6671,-87.9365,22.34,11111222 
DISL,ioos:station:DISL:MHPA:1,2019-05-18T12:02:00Z,30.6671,-87.9365,22.88,11111222 
DISL,ioos:station:DISL:MHPA:1,2019-05-18T13:02:00Z,30.6671,-87.9365,24.42,11111222 
DISL,ioos:station:DISL:MHPA:1,2019-05-18T14:02:00Z,30.6671,-87.9365,25.41,11111222 
DISL,ioos:station:DISL:MHPA:1,2019-05-18T15:02:00Z,30.6671,-87.9365,25.78,11111222 
DISL,ioos:station:DISL:MHPA:1,2019-05-18T16:02:00Z,30.6671,-87.9365,26.15,11111222 
DISL,ioos:station:DISL:MHPA:1,2019-05-18T17:02:00Z,30.6671,-87.9365,26.49,11111222 
DISL,ioos:station:DISL:MHPA:1,2019-05-18T18:02:00Z,30.6671,-87.9365,26.55,11111222 
DISL,ioos:station:DISL:MHPA:1,2019-05-18T19:02:00Z,30.6671,-87.9365,26.72,11111222 
DISL,ioos:station:DISL:MHPA:1,2019-05-18T20:02:00Z,30.6671,-87.9365,26.86,11111222 
DISL,ioos:station:DISL:MHPA:1,2019-05-18T21:02:00Z,30.6671,-87.9365,26.82,11111222 
DISL,ioos:station:DISL:MHPA:1,2019-05-18T22:02:00Z,30.6671,-87.9365,27.03,11111222 
DISL,ioos:station:DISL:MHPA:1,2019-05-18T23:02:00Z,30.6671,-87.9365,27.23,11111222 
DISL,ioos:station:DISL:MHPA:1,2019-05-19T00:02:00Z,30.6671,-87.9365,26.99,11111222 
DISL,ioos:station:DISL:MHPA:1,2019-05-19T01:02:00Z,30.6671,-87.9365,25.96,11111222 
DISL,ioos:station:DISL:MHPA:1,2019-05-19T02:02:00Z,30.6671,-87.9365,24.89,11111222 
DISL,ioos:station:DISL:MHPA:1,2019-05-19T03:02:00Z,30.6671,-87.9365,24.35,11111222 
DISL,ioos:station:DISL:MHPA:1,2019-05-19T04:02:00Z,30.6671,-87.9365,24.12,11111222 
DISL,ioos:station:DISL:MHPA:1,2019-05-19T05:02:00Z,30.6671,-87.9365,23.71,11111222 
DISL,ioos:station:DISL:MHPA:1,2019-05-19T06:02:00Z,30.6671,-87.9365,23.51,11111222 
DISL,ioos:station:DISL:MHPA:1,2019-05-19T07:02:00Z,30.6671,-87.9365,23.05,11111222 
DISL,ioos:station:DISL:MHPA:1,2019-05-19T08:02:00Z,30.6671,-87.9365,23.22,11111222 
DISL,ioos:station:DISL:MHPA:1,2019-05-19T09:02:00Z,30.6671,-87.9365,22.99,11111222 
DISL,ioos:station:DISL:MHPA:1,2019-05-19T10:02:00Z,30.6671,-87.9365,22.65,11111222 
DISL,ioos:station:DISL:MHPA:1,2019-05-19T11:02:00Z,30.6671,-87.9365,22.68,11111222 
DISL,ioos:station:DISL:MHPA:1,2019-05-19T12:02:00Z,30.6671,-87.9365,23.22,11111222 
DISL,ioos:station:DISL:MHPA:1,2019-05-19T13:02:00Z,30.6671,-87.9365,24.35,11111222 
DISL,ioos:station:DISL:MHPA:1,2019-05-19T14:02:00Z,30.6671,-87.9365,25.39,11111222 
DISL,ioos:station:DISL:MHPA:1,2019-05-19T15:02:00Z,30.6671,-87.9365,25.81,11111222 
DISL,ioos:station:DISL:MHPA:1,2019-05-19T16:02:00Z,30.6671,-87.9365,25.95,11111222 